Location: Ellingshausen
(50.5460°N, 10.4723°E)
Time: 23:11:12
(UTC+00:00)

Lacrosse 4 Rocket - Pass Details

Date: 18 January 2026
Orbit: 513 x 564 km, 68.0° (Epoch: 7 February)

Event Time Altitude Azimuth Distance (km) Brightness Sun altitude
Exits shadow 04:56:50 - 197° (SSW) 2,659 4.7 -20.7°
Rises 04:56:51 0° 197° (SSW) 2,652 4.7 -20.7°
Reaches altitude 10° 04:59:05 10° 191° (S) 1,760 3.9 -20.3°
Maximum altitude 05:02:51 45° 118° (ESE) 714 2.3 -19.7°
Drops below altitude 10° 05:06:34 10° 45° (NE) 1,753 4.3 -19.1°
Sets 05:08:48 0° 39° (NE) 2,641 5.2 -18.8°
